Regional Weather Roundup
Issued by NWS Little Rock, AR

Home | Current Version | Previous Version | Graphics & Text | Print | Product List | Glossary On
Versions: 1 2 3 4 5 6 7 8 9 10 11 12 13 14 15 16 17 18 19 20 21 22 23 24 25 26 27 28 29 30 31
000
ASUS44 KLZK 282205
RWRLZK

WEATHER ROUNDUP FOR ARKANSAS
NATIONAL WEATHER SERVICE LITTLE ROCK AR
500 PM CDT WED SEP 28 2016

NOTE: "FAIR" INDICATES FEW OR NO CLOUDS BELOW 12,000 FEET WITH NO
SIGNIFICANT WEATHER AND/OR OBSTRUCTIONS TO VISIBILITY.

ARZ001-003-010-029-282300-
NORTHWEST ARKANSAS

CITY           SKY/WX    TMP DP  RH WIND       PRES   REMARKS
FAYETTEVILLE   SUNNY     76  46  34 N12G20    30.04R
FORT SMITH     SUNNY     87  45  23 N18G25    29.97R
HARRISON       SUNNY     75  42  30 N13G20    30.04R
BENTONVILLE    SUNNY     73  41  31 N13G20    30.07R
ROGERS         SUNNY     72  47  40 N10       30.08R
SILOAM SPGS    SUNNY     75  41  29 N18       30.06R
HIGHFILL       SUNNY     76  44  32 N16       30.06R
SPRINGDALE     SUNNY     77  41  27 N14       30.07R
$$

ARZ004-005-016-282300-
NORTH CENTRAL ARKANSAS

CITY           SKY/WX    TMP DP  RH WIND       PRES   REMARKS
BATESVILLE     MOSUNNY   81  54  39 NW6       29.95R
FLIPPIN        SUNNY     79  43  27 N12       29.99R
MTN HOME       SUNNY     75  45  34 VRB5      30.01R
$$

ARZ040-041-282300-
WEST CENTRAL ARKANSAS

CITY           SKY/WX    TMP DP  RH WIND       PRES   REMARKS
MENA           SUNNY    N/A N/A N/A NW10G16   29.98S
MOUNT IDA      SUNNY     88  55  32 VRB6      29.93S HX  86
$$

ARZ009-017-025-026-028-282300-
NORTHEAST ARKANSAS

CITY           SKY/WX    TMP DP  RH WIND       PRES   REMARKS
CORNING          N/A     79  48  34 N16G24    29.97R
JONESBORO      SUNNY     83  50  31 N12G17    29.92R
NEWPORT        SUNNY     82  56  40 N16       29.93R
WALNUT RIDGE   SUNNY     79  45  29 NW20      29.95R
BLYTHEVILLE    MOSUNNY   83  53  35 N16G24    29.92R
$$

ARZ022-023-033-042-044-282300-
CENTRAL ARKANSAS

CITY           SKY/WX    TMP DP  RH WIND       PRES   REMARKS
LITTLE ROCK    MOSUNNY   90  53  28 NW18G26   29.90R HX  87
N LITTLE ROCK    N/A     85  57  38 N8G20     29.90R
JACKSONVILLE   SUNNY     87  56  34 VRB7G18   29.92R HX  86
SEARCY         MOSUNNY   85  58  39 N12G20    29.93R
HOT SPRINGS    SUNNY     89  56  32 W5G16     29.92S HX  87
RUSSELLVILLE   SUNNY     86  53  32 NW13      29.94R
$$

ARZ036-282300-
EAST ARKANSAS

CITY           SKY/WX    TMP DP  RH WIND       PRES   REMARKS
WEST MEMPHIS   SUNNY     86  52  30 NW8       29.88R
$$

ARZ050-053-066-070-073-282300-
SOUTHWEST ARKANSAS

CITY           SKY/WX    TMP DP  RH WIND       PRES   REMARKS
ARKADELPHIA    FAIR      86  61  42 W8G17     29.92F HX  86
TEXARKANA      SUNNY     89  52  28 SW12      29.96S HX  86
EL DORADO      SUNNY     84  57  39 SW8       29.96S
DE QUEEN       SUNNY     88  57  34 W9        29.93F HX  87
$$

ARZ056-057-069-282300-
SOUTHEAST ARKANSAS

CITY           SKY/WX    TMP DP  RH WIND       PRES   REMARKS
PINE BLUFF     SUNNY     86  55  34 W13G22    29.91S
STUTTGART      SUNNY     90  55  31 W14       29.91R HX  88
MONTICELLO     SUNNY     86  53  32 SW9       29.93S

$$






USA.gov is the U.S. government's official web portal to all federal, state and local government web resources and services.